Location: Binningen
(47.7924°N, 8.7261°E)
Time: 19:39:58
(UTC+00:00)

Cosmos 2151 Rocket - Pass Details

Date: 17 May 2021
Orbit: 616 x 643 km, 82.5° (Epoch: 21 June)

Event Time Altitude Azimuth Distance (km) Brightness Sun altitude
Rises 23:43:56 0° 346° (NNW) 2,955 8.3 -22.5°
Reaches altitude 10° 23:46:14 10° 341° (NNW) 2,037 7.1 -22.4°
Maximum altitude 23:50:36 50° 267° (W) 809 4.0 -22.3°
Enters shadow 23:50:56 49° 250° (WSW) 821 3.9 -22.3°
